Location: Pouilly
(47.2624°N, 4.5558°E)
Time: 04:53:11
(UTC+00:00)

Cosmos 1570 Rocket - Pass Details

Date: 07 June 2020
Orbit: 764 x 787 km, 74.1° (Epoch: 14 July)

Event Time Altitude Azimuth Distance (km) Brightness Sun altitude
Exits shadow 00:04:58 37° 162° (SSE) 1,197 4.5 -19.7°
Maximum altitude 00:06:46 54° 106° (ESE) 935 4.3 -19.7°
Drops below altitude 10° 00:11:54 10° 30° (NNE) 2,326 7.5 -19.6°
Sets 00:14:19 0° 26° (NNE) 3,254 8.6 -19.5°
